Time,TemperatureF,DewpointF,PressureIn,WindDirection,WindDirectionDegrees,WindSpeedMPH,WindSpeedGustMPH,Humidity,HourlyPrecipIn,Conditions,Clouds,dailyrainin,SoftwareType,DateUTC
2013-02-15 00:00:00,47.9,34.7,30.06,SSE,168,1.0,2.0,60,0.00,,SKC,0.00,VWS V14.01,2013-02-15 06:00:00,
2013-02-15 00:05:00,47.9,34.7,30.06,SSE,165,1.0,5.0,60,0.00,,SKC,0.00,VWS V14.01,2013-02-15 06:05:00,
2013-02-15 00:10:00,47.7,34.5,30.06,SSE,164,3.0,4.0,60,0.00,,SKC,0.00,VWS V14.01,2013-02-15 06:10:00,
2013-02-15 00:15:00,47.1,34.4,30.06,SSE,164,3.0,3.0,61,0.00,,SKC,0.00,VWS V14.01,2013-02-15 06:15:00,
2013-02-15 00:20:00,46.5,34.2,30.06,SSE,165,0.0,3.0,62,0.00,,SKC,0.00,VWS V14.01,2013-02-15 06:20:00,
2013-02-15 00:25:00,46.3,34.4,30.06,SSE,165,2.0,2.0,63,0.00,,SKC,0.00,VWS V14.01,2013-02-15 06:25:00,
2013-02-15 00:30:00,46.5,34.6,30.06,SSE,165,1.0,4.0,63,0.00,,SKC,0.00,VWS V14.01,2013-02-15 06:30:00,
2013-02-15 00:35:00,46.5,34.6,30.06,SSE,165,0.0,2.0,63,0.00,,SKC,0.00,VWS V14.01,2013-02-15 06:35:00,
2013-02-15 00:40:00,46.3,34.8,30.06,SSE,165,0.0,0.0,64,0.00,,SKC,0.00,VWS V14.01,2013-02-15 06:40:00,
2013-02-15 00:45:00,46.1,34.6,30.06,SSE,164,0.0,1.0,64,0.00,,SKC,0.00,VWS V14.01,2013-02-15 06:45:00,
2013-02-15 00:50:00,46.2,35.1,30.06,SSE,164,0.0,2.0,65,0.00,,SKC,0.00,VWS V14.01,2013-02-15 06:50:00,
2013-02-15 00:55:00,46.2,34.7,30.07,SSE,165,0.0,1.0,64,0.00,,SKC,0.00,VWS V14.01,2013-02-15 06:55:00,
2013-02-15 01:00:00,46.0,34.9,30.07,SSE,165,0.0,0.0,65,0.00,,SKC,0.00,VWS V14.01,2013-02-15 07:00:00,
2013-02-15 01:05:00,46.0,34.9,30.06,SSE,165,1.0,2.0,65,0.00,,SKC,0.00,VWS V14.01,2013-02-15 07:05:00,
2013-02-15 01:10:00,46.1,35.0,30.06,SSE,165,1.0,1.0,65,0.00,,SKC,0.00,VWS V14.01,2013-02-15 07:10:00,
2013-02-15 01:15:00,46.3,35.6,30.06,SSE,165,1.0,3.0,66,0.00,,SKC,0.00,VWS V14.01,2013-02-15 07:15:00,
2013-02-15 01:20:00,46.3,35.2,30.07,SSE,164,0.0,0.0,65,0.00,,SKC,0.00,VWS V14.01,2013-02-15 07:20:00,
2013-02-15 01:25:00,45.9,35.2,30.07,SSE,164,0.0,3.0,66,0.00,,SKC,0.00,VWS V14.01,2013-02-15 07:25:00,
2013-02-15 01:30:00,45.6,35.3,30.07,SSE,164,2.0,2.0,67,0.00,,SKC,0.00,VWS V14.01,2013-02-15 07:30:00,
2013-02-15 01:35:00,45.5,35.2,30.07,SSE,164,0.0,1.0,67,0.00,,SKC,0.00,VWS V14.01,2013-02-15 07:35:00,
2013-02-15 01:40:00,45.7,35.4,30.07,SSE,167,0.0,4.0,67,0.00,,SKC,0.00,VWS V14.01,2013-02-15 07:40:00,
2013-02-15 01:45:00,46.0,35.3,30.07,SSE,167,2.0,2.0,66,0.00,,SKC,0.00,VWS V14.01,2013-02-15 07:45:00,
2013-02-15 01:50:00,46.0,35.3,30.07,SSE,167,3.0,3.0,66,0.00,,SKC,0.00,VWS V14.01,2013-02-15 07:50:00,
2013-02-15 01:55:00,45.7,35.0,30.07,SSE,167,1.0,3.0,66,0.00,,SKC,0.00,VWS V14.01,2013-02-15 07:55:00,
2013-02-15 02:00:00,45.5,35.2,30.07,SSE,167,3.0,3.0,67,0.00,,SKC,0.00,VWS V14.01,2013-02-15 08:00:00,
2013-02-15 02:05:00,45.6,34.9,30.07,SSE,167,0.0,0.0,66,0.00,,SKC,0.00,VWS V14.01,2013-02-15 08:05:00,
2013-02-15 02:10:00,45.4,34.7,30.07,SSE,167,0.0,1.0,66,0.00,,SKC,0.00,VWS V14.01,2013-02-15 08:10:00,
2013-02-15 02:15:00,45.3,34.6,30.07,SSE,167,3.0,3.0,66,0.00,,SKC,0.00,VWS V14.01,2013-02-15 08:15:00,
2013-02-15 02:20:00,45.4,34.3,30.07,SSE,167,0.0,0.0,65,0.00,,SKC,0.00,VWS V14.01,2013-02-15 08:20:00,
2013-02-15 02:25:00,45.3,34.2,30.07,SSE,167,0.0,0.0,65,0.00,,SKC,0.00,VWS V14.01,2013-02-15 08:25:00,
2013-02-15 02:30:00,45.0,34.3,30.07,SSE,167,1.0,2.0,66,0.00,,SKC,0.00,VWS V14.01,2013-02-15 08:30:00,
2013-02-15 02:35:00,44.6,34.3,30.07,SSE,167,1.0,2.0,67,0.00,,SKC,0.00,VWS V14.01,2013-02-15 08:35:00,
2013-02-15 02:40:00,44.4,34.5,30.07,SSE,167,0.0,0.0,68,0.00,,SKC,0.00,VWS V14.01,2013-02-15 08:40:00,
2013-02-15 02:45:00,44.2,34.7,30.07,SSE,167,0.0,0.0,69,0.00,,SKC,0.00,VWS V14.01,2013-02-15 08:45:00,
2013-02-15 02:50:00,44.2,34.7,30.07,SSE,167,0.0,0.0,69,0.00,,SKC,0.00,VWS V14.01,2013-02-15 08:50:00,
2013-02-15 02:55:00,43.7,34.2,30.07,SSE,167,0.0,0.0,69,0.00,,SKC,0.00,VWS V14.01,2013-02-15 08:55:00,
2013-02-15 03:00:00,43.2,34.1,30.07,SSE,167,0.0,0.0,70,0.00,,SKC,0.00,VWS V14.01,2013-02-15 09:00:00,
2013-02-15 03:05:00,43.1,34.3,30.07,SSE,167,1.0,1.0,71,0.00,,SKC,0.00,VWS V14.01,2013-02-15 09:05:00,
2013-02-15 03:10:00,43.1,34.0,30.07,SSE,167,0.0,0.0,70,0.00,,SKC,0.00,VWS V14.01,2013-02-15 09:10:00,
2013-02-15 03:15:00,43.1,34.0,30.07,SSE,167,0.0,0.0,70,0.00,,SKC,0.00,VWS V14.01,2013-02-15 09:15:00,
2013-02-15 03:20:00,43.1,33.6,30.07,SSE,167,0.0,1.0,69,0.00,,SKC,0.00,VWS V14.01,2013-02-15 09:20:00,
2013-02-15 03:25:00,43.4,33.6,30.07,SSE,167,1.0,2.0,68,0.00,,SKC,0.00,VWS V14.01,2013-02-15 09:25:00,
2013-02-15 03:30:00,43.9,33.7,30.07,South,186,1.0,4.0,67,0.00,,SKC,0.00,VWS V14.01,2013-02-15 09:30:00,
2013-02-15 03:35:00,43.9,33.3,30.07,South,186,0.0,2.0,66,0.00,,SKC,0.00,VWS V14.01,2013-02-15 09:35:00,
2013-02-15 03:40:00,43.5,33.3,30.07,South,186,2.0,2.0,67,0.00,,SKC,0.00,VWS V14.01,2013-02-15 09:40:00,
2013-02-15 03:45:00,43.5,32.9,30.08,South,186,0.0,0.0,66,0.00,,SKC,0.00,VWS V14.01,2013-02-15 09:45:00,
2013-02-15 03:50:00,43.5,32.9,30.08,South,186,0.0,1.0,66,0.00,,SKC,0.00,VWS V14.01,2013-02-15 09:50:00,
2013-02-15 03:55:00,43.6,33.4,30.08,South,186,0.0,0.0,67,0.00,,SKC,0.00,VWS V14.01,2013-02-15 09:55:00,
2013-02-15 04:00:00,43.7,33.5,30.08,South,186,0.0,1.0,67,0.00,,SKC,0.00,VWS V14.01,2013-02-15 10:00:00,
2013-02-15 04:05:00,43.6,33.4,30.08,South,186,0.0,1.0,67,0.00,,SKC,0.00,VWS V14.01,2013-02-15 10:05:00,
2013-02-15 04:10:00,43.5,33.3,30.08,South,186,0.0,0.0,67,0.00,,SKC,0.00,VWS V14.01,2013-02-15 10:10:00,
2013-02-15 04:15:00,43.4,33.2,30.08,South,186,0.0,0.0,67,0.00,,SKC,0.00,VWS V14.01,2013-02-15 10:15:00,
2013-02-15 04:20:00,43.6,33.4,30.08,South,186,0.0,2.0,67,0.00,,SKC,0.00,VWS V14.01,2013-02-15 10:20:00,
2013-02-15 04:25:00,43.7,33.5,30.08,SSW,192,0.0,0.0,67,0.00,,SKC,0.00,VWS V14.01,2013-02-15 10:25:00,
2013-02-15 04:30:00,43.7,33.5,30.08,SSW,192,0.0,0.0,67,0.00,,SKC,0.00,VWS V14.01,2013-02-15 10:30:00,
2013-02-15 04:35:00,43.8,33.6,30.08,SSW,192,0.0,1.0,67,0.00,,SKC,0.00,VWS V14.01,2013-02-15 10:35:00,
2013-02-15 04:40:00,43.7,33.5,30.08,SSW,192,0.0,0.0,67,0.00,,SKC,0.00,VWS V14.01,2013-02-15 10:40:00,
2013-02-15 04:45:00,43.5,33.3,30.08,SSW,192,0.0,0.0,67,0.00,,SKC,0.00,VWS V14.01,2013-02-15 10:45:00,
2013-02-15 04:50:00,43.3,33.5,30.08,SSW,192,0.0,0.0,68,0.00,,SKC,0.00,VWS V14.01,2013-02-15 10:50:00,
2013-02-15 04:55:00,43.1,33.3,30.10,North,10,2.0,5.0,68,0.00,,SKC,0.00,VWS V14.01,2013-02-15 10:55:00,
2013-02-15 05:00:00,42.6,33.5,30.10,NW,317,2.0,3.0,70,0.00,,SKC,0.00,VWS V14.01,2013-02-15 11:00:00,
2013-02-15 05:05:00,42.3,33.6,30.11,NNW,343,1.0,5.0,71,0.00,,SKC,0.00,VWS V14.01,2013-02-15 11:05:00,
2013-02-15 05:10:00,42.4,34.0,30.12,NNW,343,0.0,1.0,72,0.00,,SKC,0.00,VWS V14.01,2013-02-15 11:10:00,
2013-02-15 05:15:00,42.5,34.1,30.12,NNW,344,7.0,11.0,72,0.00,,SKC,0.00,VWS V14.01,2013-02-15 11:15:00,
2013-02-15 05:20:00,43.3,34.2,30.12,NW,310,3.0,4.0,70,0.00,,SKC,0.00,VWS V14.01,2013-02-15 11:20:00,
2013-02-15 05:25:00,43.7,34.2,30.13,North,355,4.0,6.0,69,0.00,,SKC,0.00,VWS V14.01,2013-02-15 11:25:00,
2013-02-15 05:30:00,43.8,33.9,30.13,North,355,1.0,2.0,68,0.00,,SKC,0.00,VWS V14.01,2013-02-15 11:30:00,
2013-02-15 05:35:00,43.7,33.5,30.13,North,351,2.0,4.0,67,0.00,,SKC,0.00,VWS V14.01,2013-02-15 11:35:00,
2013-02-15 05:40:00,43.7,33.5,30.13,NNW,348,2.0,3.0,67,0.00,,SKC,0.00,VWS V14.01,2013-02-15 11:40:00,
2013-02-15 05:45:00,43.6,33.0,30.13,NNW,348,0.0,1.0,66,0.00,,SKC,0.00,VWS V14.01,2013-02-15 11:45:00,
2013-02-15 05:50:00,43.5,32.9,30.14,NNW,348,1.0,2.0,66,0.00,,SKC,0.00,VWS V14.01,2013-02-15 11:50:00,
2013-02-15 05:55:00,43.0,32.8,30.14,NNW,348,0.0,1.0,67,0.00,,SKC,0.00,VWS V14.01,2013-02-15 11:55:00,
2013-02-15 06:00:00,42.6,32.4,30.14,NNW,348,2.0,2.0,67,0.00,,SKC,0.00,VWS V14.01,2013-02-15 12:00:00,
2013-02-15 06:05:00,41.9,32.5,30.14,NNW,348,0.0,1.0,69,0.00,,SKC,0.00,VWS V14.01,2013-02-15 12:05:00,
2013-02-15 06:10:00,41.5,32.5,30.15,NNW,348,1.0,2.0,70,0.00,,SKC,0.00,VWS V14.01,2013-02-15 12:10:00,
2013-02-15 06:15:00,41.3,32.3,30.15,NNW,348,1.0,1.0,70,0.00,,SKC,0.00,VWS V14.01,2013-02-15 12:15:00,
2013-02-15 06:20:00,41.3,32.3,30.15,NNW,348,0.0,2.0,70,0.00,,SKC,0.00,VWS V14.01,2013-02-15 12:20:00,
2013-02-15 06:25:00,41.4,32.4,30.15,NNW,348,0.0,2.0,70,0.00,,SKC,0.00,VWS V14.01,2013-02-15 12:25:00,
2013-02-15 06:30:00,41.4,32.4,30.15,NNW,348,1.0,2.0,70,0.00,,SKC,0.00,VWS V14.01,2013-02-15 12:30:00,
2013-02-15 06:35:00,41.4,32.4,30.16,NNW,348,0.0,2.0,70,0.00,,SKC,0.00,VWS V14.01,2013-02-15 12:35:00,
2013-02-15 06:40:00,41.3,32.3,30.16,NNW,348,0.0,1.0,70,0.00,,SKC,0.00,VWS V14.01,2013-02-15 12:40:00,
2013-02-15 06:45:00,41.4,32.4,30.16,NNW,327,3.0,5.0,70,0.00,,SKC,0.00,VWS V14.01,2013-02-15 12:45:00,
2013-02-15 06:50:00,41.5,32.5,30.16,NW,314,2.0,4.0,70,0.00,,SKC,0.00,VWS V14.01,2013-02-15 12:50:00,
2013-02-15 06:55:00,41.4,32.4,30.16,NW,322,3.0,7.0,70,0.00,,SKC,0.00,VWS V14.01,2013-02-15 12:55:00,
2013-02-15 07:00:00,41.4,32.7,30.17,NW,315,3.0,4.0,71,0.00,,SKC,0.00,VWS V14.01,2013-02-15 13:00:00,
2013-02-15 07:05:00,41.3,32.3,30.16,NNW,334,2.0,5.0,70,0.00,,SKC,0.00,VWS V14.01,2013-02-15 13:05:00,
2013-02-15 07:10:00,41.1,32.1,30.17,WNW,298,5.0,5.0,70,0.00,,SKC,0.00,VWS V14.01,2013-02-15 13:10:00,
2013-02-15 07:15:00,40.9,31.9,30.17,North,350,5.0,9.0,70,0.00,,SKC,0.00,VWS V14.01,2013-02-15 13:15:00,
2013-02-15 07:20:00,40.7,31.7,30.17,NNW,342,3.0,6.0,70,0.00,,SKC,0.00,VWS V14.01,2013-02-15 13:20:00,
2013-02-15 07:25:00,40.4,31.8,30.18,NNW,347,4.0,6.0,71,0.00,,SKC,0.00,VWS V14.01,2013-02-15 13:25:00,
2013-02-15 07:30:00,40.2,31.6,30.18,NNW,333,5.0,9.0,71,0.00,,SKC,0.00,VWS V14.01,2013-02-15 13:30:00,
2013-02-15 07:35:00,40.2,31.9,30.18,NNW,336,3.0,7.0,72,0.00,,SKC,0.00,VWS V14.01,2013-02-15 13:35:00,
2013-02-15 07:40:00,40.1,31.8,30.18,NW,305,1.0,7.0,72,0.00,,SKC,0.00,VWS V14.01,2013-02-15 13:40:00,
2013-02-15 07:45:00,40.1,32.2,30.19,NNW,337,3.0,5.0,73,0.00,,SKC,0.00,VWS V14.01,2013-02-15 13:45:00,
2013-02-15 07:50:00,40.1,32.2,30.19,NNW,340,0.0,3.0,73,0.00,,SKC,0.00,VWS V14.01,2013-02-15 13:50:00,
2013-02-15 07:55:00,40.2,32.2,30.19,North,11,6.0,7.0,73,0.00,,SKC,0.00,VWS V14.01,2013-02-15 13:55:00,
2013-02-15 08:00:00,40.3,32.3,30.19,West,265,8.0,11.0,73,0.00,,SKC,0.00,VWS V14.01,2013-02-15 14:00:00,
2013-02-15 08:05:00,40.5,32.5,30.20,NNW,342,6.0,9.0,73,0.00,,SKC,0.00,VWS V14.01,2013-02-15 14:05:00,
2013-02-15 08:10:00,40.6,33.0,30.20,NNW,329,3.0,7.0,74,0.00,,SKC,0.00,VWS V14.01,2013-02-15 14:10:00,
2013-02-15 08:15:00,40.7,33.1,30.20,NNW,332,4.0,6.0,74,0.00,,SKC,0.00,VWS V14.01,2013-02-15 14:15:00,
2013-02-15 08:20:00,40.9,33.3,30.20,NW,323,2.0,5.0,74,0.00,,SKC,0.00,VWS V14.01,2013-02-15 14:20:00,
2013-02-15 08:25:00,41.0,33.4,30.20,North,360,2.0,7.0,74,0.00,,SKC,0.00,VWS V14.01,2013-02-15 14:25:00,
2013-02-15 08:30:00,41.2,33.5,30.20,WNW,301,0.0,7.0,74,0.00,,SKC,0.00,VWS V14.01,2013-02-15 14:30:00,
2013-02-15 08:35:00,41.4,33.8,30.20,NNW,333,6.0,11.0,74,0.00,,SKC,0.00,VWS V14.01,2013-02-15 14:35:00,
2013-02-15 08:40:00,41.6,33.9,30.21,NW,326,4.0,5.0,74,0.00,,SKC,0.00,VWS V14.01,2013-02-15 14:40:00,
2013-02-15 08:45:00,41.9,34.2,30.21,North,355,4.0,7.0,74,0.00,,SKC,0.00,VWS V14.01,2013-02-15 14:45:00,
2013-02-15 08:50:00,42.3,34.6,30.21,NW,326,12.0,12.0,74,0.00,,SKC,0.00,VWS V14.01,2013-02-15 14:50:00,
2013-02-15 08:55:00,42.7,35.0,30.22,NNW,341,5.0,10.0,74,0.00,,SKC,0.00,VWS V14.01,2013-02-15 14:55:00,
2013-02-15 09:00:00,42.9,34.8,30.22,NW,326,3.0,11.0,73,0.00,,SKC,0.00,VWS V14.01,2013-02-15 15:00:00,
2013-02-15 09:05:00,43.0,35.0,30.22,NNW,333,2.0,10.0,73,0.00,,SKC,0.00,VWS V14.01,2013-02-15 15:05:00,
2013-02-15 09:10:00,43.3,35.2,30.22,NW,317,4.0,12.0,73,0.00,,SKC,0.00,VWS V14.01,2013-02-15 15:10:00,
2013-02-15 09:15:00,43.6,35.2,30.22,NNW,337,4.0,7.0,72,0.00,,SKC,0.00,VWS V14.01,2013-02-15 15:15:00,
2013-02-15 09:20:00,43.8,35.4,30.22,NNE,17,7.0,10.0,72,0.00,,SKC,0.00,VWS V14.01,2013-02-15 15:20:00,
2013-02-15 09:25:00,44.0,35.2,30.22,North,5,4.0,7.0,71,0.00,,SKC,0.00,VWS V14.01,2013-02-15 15:25:00,
2013-02-15 09:30:00,44.2,35.8,30.23,NNW,329,5.0,9.0,72,0.00,,SKC,0.00,VWS V14.01,2013-02-15 15:30:00,
2013-02-15 09:35:00,44.7,35.9,30.23,NW,323,4.0,11.0,71,0.00,,SKC,0.00,VWS V14.01,2013-02-15 15:35:00,
2013-02-15 09:40:00,45.2,36.0,30.23,NNW,330,6.0,9.0,70,0.00,,SKC,0.00,VWS V14.01,2013-02-15 15:40:00,
2013-02-15 09:45:00,45.6,36.0,30.23,North,355,6.0,11.0,69,0.00,,SKC,0.00,VWS V14.01,2013-02-15 15:45:00,
2013-02-15 09:50:00,45.7,36.1,30.23,North,350,3.0,8.0,69,0.00,,SKC,0.00,VWS V14.01,2013-02-15 15:50:00,
2013-02-15 09:55:00,45.8,36.2,30.23,North,360,5.0,11.0,69,0.00,,SKC,0.00,VWS V14.01,2013-02-15 15:55:00,
2013-02-15 10:00:00,45.7,35.8,30.23,North,355,6.0,10.0,68,0.00,,SKC,0.00,VWS V14.01,2013-02-15 16:00:00,
2013-02-15 10:05:00,46.1,36.1,30.23,North,11,9.0,10.0,68,0.00,,SKC,0.00,VWS V14.01,2013-02-15 16:05:00,
2013-02-15 10:10:00,46.2,35.9,30.23,NW,319,0.0,6.0,67,0.00,,SKC,0.00,VWS V14.01,2013-02-15 16:10:00,
2013-02-15 10:15:00,46.7,36.3,30.23,North,360,5.0,9.0,67,0.00,,SKC,0.00,VWS V14.01,2013-02-15 16:15:00,
2013-02-15 10:20:00,47.6,37.2,30.23,North,360,7.0,10.0,67,0.00,,SKC,0.00,VWS V14.01,2013-02-15 16:20:00,
2013-02-15 10:25:00,47.9,36.7,30.23,NNW,348,4.0,7.0,65,0.00,,SKC,0.00,VWS V14.01,2013-02-15 16:25:00,
2013-02-15 10:30:00,48.0,36.8,30.24,NNW,343,6.0,8.0,65,0.00,,SKC,0.00,VWS V14.01,2013-02-15 16:30:00,
2013-02-15 10:35:00,48.3,37.1,30.24,NE,34,9.0,12.0,65,0.00,,SKC,0.00,VWS V14.01,2013-02-15 16:35:00,
2013-02-15 10:40:00,48.7,37.1,30.24,North,11,9.0,11.0,64,0.00,,SKC,0.00,VWS V14.01,2013-02-15 16:40:00,
2013-02-15 10:45:00,48.8,37.2,30.24,North,355,8.0,11.0,64,0.00,,SKC,0.00,VWS V14.01,2013-02-15 16:45:00,
2013-02-15 10:50:00,49.0,37.0,30.24,North,11,11.0,12.0,63,0.00,,SKC,0.00,VWS V14.01,2013-02-15 16:50:00,
2013-02-15 10:55:00,49.2,37.2,30.24,NNW,340,6.0,6.0,63,0.00,,SKC,0.00,VWS V14.01,2013-02-15 16:55:00,
2013-02-15 11:00:00,50.1,37.6,30.25,North,355,6.0,8.0,62,0.00,,SKC,0.00,VWS V14.01,2013-02-15 17:00:00,
2013-02-15 11:05:00,50.5,37.6,30.25,NNE,28,3.0,6.0,61,0.00,,SKC,0.00,VWS V14.01,2013-02-15 17:05:00,
2013-02-15 11:10:00,50.7,37.3,30.24,NNW,344,2.0,9.0,60,0.00,,SKC,0.00,VWS V14.01,2013-02-15 17:10:00,
2013-02-15 11:15:00,51.1,37.7,30.24,NNE,15,6.0,11.0,60,0.00,,SKC,0.00,VWS V14.01,2013-02-15 17:15:00,
2013-02-15 11:20:00,51.0,37.2,30.24,North,5,3.0,5.0,59,0.00,,SKC,0.00,VWS V14.01,2013-02-15 17:20:00,
2013-02-15 11:25:00,51.2,37.0,30.24,ENE,63,8.0,10.0,58,0.00,,SKC,0.00,VWS V14.01,2013-02-15 17:25:00,
2013-02-15 11:30:00,51.4,37.1,30.24,NNE,15,7.0,12.0,58,0.00,,SKC,0.00,VWS V14.01,2013-02-15 17:30:00,
2013-02-15 11:35:00,51.4,37.6,30.24,NNW,331,4.0,8.0,59,0.00,,SKC,0.00,VWS V14.01,2013-02-15 17:35:00,
2013-02-15 11:40:00,51.5,36.8,30.24,NNW,342,4.0,10.0,57,0.00,,SKC,0.00,VWS V14.01,2013-02-15 17:40:00,
2013-02-15 11:45:00,51.8,36.6,30.24,NE,37,11.0,11.0,56,0.00,,SKC,0.00,VWS V14.01,2013-02-15 17:45:00,
2013-02-15 11:50:00,52.0,36.8,30.24,North,9,6.0,11.0,56,0.00,,SKC,0.00,VWS V14.01,2013-02-15 17:50:00,
2013-02-15 11:55:00,51.9,36.7,30.24,NNE,13,10.0,15.0,56,0.00,,SKC,0.00,VWS V14.01,2013-02-15 17:55:00,
2013-02-15 12:00:00,51.4,36.7,30.24,NE,49,6.0,10.0,57,0.00,,SKC,0.00,VWS V14.01,2013-02-15 18:00:00,
2013-02-15 12:05:00,51.7,36.5,30.24,NNE,22,6.0,11.0,56,0.00,,SKC,0.00,VWS V14.01,2013-02-15 18:05:00,
2013-02-15 12:10:00,51.7,37.0,30.24,NE,49,3.0,5.0,57,0.00,,SKC,0.00,VWS V14.01,2013-02-15 18:10:00,
2013-02-15 12:15:00,52.3,36.6,30.24,NNE,25,6.0,11.0,55,0.00,,SKC,0.00,VWS V14.01,2013-02-15 18:15:00,
2013-02-15 12:20:00,52.7,37.0,30.24,North,360,5.0,10.0,55,0.00,,SKC,0.00,VWS V14.01,2013-02-15 18:20:00,
2013-02-15 12:25:00,53.1,36.9,30.23,NE,53,7.0,13.0,54,0.00,,SKC,0.00,VWS V14.01,2013-02-15 18:25:00,
2013-02-15 12:30:00,53.3,37.1,30.23,NNE,32,5.0,11.0,54,0.00,,SKC,0.00,VWS V14.01,2013-02-15 18:30:00,
2013-02-15 12:35:00,53.7,37.0,30.23,NE,34,10.0,15.0,53,0.00,,SKC,0.00,VWS V14.01,2013-02-15 18:35:00,
2013-02-15 12:40:00,53.0,36.8,30.23,NE,42,9.0,12.0,54,0.00,,SKC,0.00,VWS V14.01,2013-02-15 18:40:00,
2013-02-15 12:45:00,53.0,37.3,30.23,NE,45,8.0,10.0,55,0.00,,SKC,0.00,VWS V14.01,2013-02-15 18:45:00,
2013-02-15 12:50:00,53.4,37.7,30.22,NNE,30,7.0,7.0,55,0.00,,SKC,0.00,VWS V14.01,2013-02-15 18:50:00,
2013-02-15 12:55:00,53.8,37.6,30.22,NNE,29,3.0,5.0,54,0.00,,SKC,0.00,VWS V14.01,2013-02-15 18:55:00,
2013-02-15 13:00:00,53.7,37.9,30.22,NNE,18,4.0,5.0,55,0.00,,SKC,0.00,VWS V14.01,2013-02-15 19:00:00,
2013-02-15 13:05:00,54.0,37.8,30.23,NNE,22,3.0,3.0,54,0.00,,SKC,0.00,VWS V14.01,2013-02-15 19:05:00,
2013-02-15 13:10:00,54.1,37.8,30.22,NE,51,12.0,12.0,54,0.00,,SKC,0.00,VWS V14.01,2013-02-15 19:10:00,
2013-02-15 13:15:00,54.1,37.4,30.22,ENE,68,6.0,6.0,53,0.00,,SKC,0.00,VWS V14.01,2013-02-15 19:15:00,
2013-02-15 13:20:00,53.8,37.1,30.22,NNE,19,10.0,10.0,53,0.00,,SKC,0.00,VWS V14.01,2013-02-15 19:20:00,
2013-02-15 13:25:00,53.5,36.8,30.21,NE,49,5.0,5.0,53,0.00,,SKC,0.00,VWS V14.01,2013-02-15 19:25:00,
2013-02-15 13:30:00,53.5,36.8,30.21,NE,41,10.0,10.0,53,0.00,,SKC,0.00,VWS V14.01,2013-02-15 19:30:00,
2013-02-15 13:35:00,53.2,36.5,30.21,NE,45,2.0,3.0,53,0.00,,SKC,0.00,VWS V14.01,2013-02-15 19:35:00,
2013-02-15 13:40:00,52.8,36.2,30.21,NNE,24,8.0,8.0,53,0.00,,SKC,0.00,VWS V14.01,2013-02-15 19:40:00,
2013-02-15 13:45:00,52.8,36.6,30.21,North,360,8.0,8.0,54,0.00,,SKC,0.00,VWS V14.01,2013-02-15 19:45:00,
2013-02-15 13:50:00,52.9,36.7,30.21,North,10,6.0,6.0,54,0.00,,SKC,0.00,VWS V14.01,2013-02-15 19:50:00,
2013-02-15 13:55:00,53.1,36.4,30.21,NNE,17,6.0,9.0,53,0.00,,SKC,0.00,VWS V14.01,2013-02-15 19:55:00,
2013-02-15 14:00:00,52.9,36.2,30.20,NNE,19,6.0,11.0,53,0.00,,SKC,0.00,VWS V14.01,2013-02-15 20:00:00,
2013-02-15 14:05:00,52.7,36.1,30.20,NE,40,5.0,7.0,53,0.00,,SKC,0.00,VWS V14.01,2013-02-15 20:05:00,
2013-02-15 14:10:00,52.6,36.5,30.20,NE,41,7.0,11.0,54,0.00,,SKC,0.00,VWS V14.01,2013-02-15 20:10:00,
2013-02-15 14:15:00,52.6,36.5,30.20,NNE,26,6.0,7.0,54,0.00,,SKC,0.00,VWS V14.01,2013-02-15 20:15:00,
2013-02-15 14:20:00,52.5,36.3,30.20,NE,36,7.0,9.0,54,0.00,,SKC,0.00,VWS V14.01,2013-02-15 20:20:00,
2013-02-15 14:25:00,52.4,36.7,30.20,NNE,14,7.0,11.0,55,0.00,,SKC,0.00,VWS V14.01,2013-02-15 20:25:00,
2013-02-15 14:30:00,52.2,36.5,30.20,NNE,20,10.0,12.0,55,0.00,,SKC,0.00,VWS V14.01,2013-02-15 20:30:00,
2013-02-15 14:35:00,52.1,36.4,30.20,NE,42,11.0,13.0,55,0.00,,SKC,0.00,VWS V14.01,2013-02-15 20:35:00,
2013-02-15 14:40:00,51.9,36.7,30.20,NE,42,3.0,4.0,56,0.00,,SKC,0.00,VWS V14.01,2013-02-15 20:40:00,
2013-02-15 14:45:00,52.0,36.3,30.20,NE,42,9.0,10.0,55,0.00,,SKC,0.00,VWS V14.01,2013-02-15 20:45:00,
2013-02-15 14:50:00,52.0,36.3,30.20,NE,40,8.0,9.0,55,0.00,,SKC,0.00,VWS V14.01,2013-02-15 20:50:00,
2013-02-15 14:55:00,51.9,36.7,30.21,NE,42,5.0,8.0,56,0.00,,SKC,0.00,VWS V14.01,2013-02-15 20:55:00,
2013-02-15 15:00:00,51.9,36.7,30.20,East,86,7.0,10.0,56,0.00,,SKC,0.00,VWS V14.01,2013-02-15 21:00:00,
2013-02-15 15:05:00,51.9,36.7,30.20,NNE,19,7.0,11.0,56,0.00,,SKC,0.00,VWS V14.01,2013-02-15 21:05:00,
2013-02-15 15:10:00,51.6,36.4,30.21,NNE,26,9.0,10.0,56,0.00,,SKC,0.00,VWS V14.01,2013-02-15 21:10:00,
2013-02-15 15:15:00,51.5,36.3,30.21,NE,34,10.0,10.0,56,0.00,,SKC,0.00,VWS V14.01,2013-02-15 21:15:00,
2013-02-15 15:20:00,51.4,36.2,30.21,NNE,25,5.0,7.0,56,0.00,,SKC,0.00,VWS V14.01,2013-02-15 21:20:00,
2013-02-15 15:25:00,51.2,36.5,30.21,North,5,4.0,6.0,57,0.00,,SKC,0.00,VWS V14.01,2013-02-15 21:25:00,
2013-02-15 15:30:00,51.0,36.3,30.21,NNE,27,7.0,10.0,57,0.00,,SKC,0.00,VWS V14.01,2013-02-15 21:30:00,
2013-02-15 15:35:00,50.9,36.2,30.21,NNE,29,9.0,9.0,57,0.00,,SKC,0.00,VWS V14.01,2013-02-15 21:35:00,
2013-02-15 15:40:00,50.8,36.1,30.21,NE,55,5.0,9.0,57,0.00,,SKC,0.00,VWS V14.01,2013-02-15 21:40:00,
2013-02-15 15:45:00,50.8,36.1,30.21,North,11,9.0,12.0,57,0.00,,SKC,0.00,VWS V14.01,2013-02-15 21:45:00,
2013-02-15 15:50:00,50.7,36.9,30.21,North,5,5.0,6.0,59,0.00,,SKC,0.00,VWS V14.01,2013-02-15 21:50:00,
2013-02-15 15:55:00,50.9,36.7,30.21,NE,53,6.0,7.0,58,0.00,,SKC,0.00,VWS V14.01,2013-02-15 21:55:00,
2013-02-15 16:01:00,50.6,36.4,30.21,NNE,19,7.0,12.0,58,0.00,,SKC,0.00,VWS V14.01,2013-02-15 22:01:00,
2013-02-15 16:06:00,50.5,36.7,30.21,NE,51,13.0,13.0,59,0.00,,SKC,0.00,VWS V14.01,2013-02-15 22:06:00,
2013-02-15 16:11:00,50.3,36.5,30.21,NNE,32,6.0,8.0,59,0.00,,SKC,0.00,VWS V14.01,2013-02-15 22:11:00,
2013-02-15 16:16:00,50.2,36.9,30.21,North,5,10.0,10.0,60,0.00,,SKC,0.00,VWS V14.01,2013-02-15 22:16:00,
2013-02-15 16:21:00,50.0,36.7,30.22,NE,34,6.0,12.0,60,0.00,,SKC,0.00,VWS V14.01,2013-02-15 22:21:00,
2013-02-15 16:26:00,49.7,36.4,30.22,NE,40,4.0,12.0,60,0.00,,SKC,0.00,VWS V14.01,2013-02-15 22:26:00,
2013-02-15 16:31:00,49.6,36.7,30.22,NE,50,6.0,12.0,61,0.00,,SKC,0.00,VWS V14.01,2013-02-15 22:31:00,
2013-02-15 16:36:00,49.3,36.4,30.22,NNE,14,11.0,12.0,61,0.00,,SKC,0.00,VWS V14.01,2013-02-15 22:36:00,
2013-02-15 16:41:00,49.2,36.3,30.23,NE,40,5.0,13.0,61,0.00,,SKC,0.00,VWS V14.01,2013-02-15 22:41:00,
2013-02-15 16:46:00,49.0,36.2,30.23,NNE,17,7.0,7.0,61,0.00,,SKC,0.00,VWS V14.01,2013-02-15 22:46:00,
2013-02-15 16:51:00,48.8,36.4,30.23,NNE,19,9.0,10.0,62,0.00,,SKC,0.00,VWS V14.01,2013-02-15 22:51:00,
2013-02-15 16:56:00,48.8,36.0,30.23,NE,49,5.0,10.0,61,0.00,,SKC,0.00,VWS V14.01,2013-02-15 22:56:00,
2013-02-15 17:01:00,48.6,35.8,30.23,NE,42,7.0,10.0,61,0.00,,SKC,0.00,VWS V14.01,2013-02-15 23:01:00,
2013-02-15 17:06:00,48.5,35.7,30.24,NNE,29,12.0,12.0,61,0.00,,SKC,0.00,VWS V14.01,2013-02-15 23:06:00,
2013-02-15 17:11:00,48.3,35.5,30.24,NNE,21,7.0,11.0,61,0.00,,SKC,0.00,VWS V14.01,2013-02-15 23:11:00,
2013-02-15 17:16:00,48.1,35.7,30.24,NE,36,4.0,12.0,62,0.00,,SKC,0.00,VWS V14.01,2013-02-15 23:16:00,
2013-02-15 17:21:00,48.1,35.7,30.24,NNE,19,5.0,7.0,62,0.00,,SKC,0.00,VWS V14.01,2013-02-15 23:21:00,
2013-02-15 17:26:00,47.9,35.5,30.24,NE,36,9.0,13.0,62,0.00,,SKC,0.00,VWS V14.01,2013-02-15 23:26:00,
2013-02-15 17:31:00,47.8,35.8,30.24,NE,36,5.0,15.0,63,0.00,,SKC,0.00,VWS V14.01,2013-02-15 23:31:00,
2013-02-15 17:36:00,47.7,35.7,30.25,NNE,12,4.0,8.0,63,0.00,,SKC,0.00,VWS V14.01,2013-02-15 23:36:00,
2013-02-15 17:41:00,47.6,35.6,30.24,NNE,26,5.0,9.0,63,0.00,,SKC,0.00,VWS V14.01,2013-02-15 23:41:00,
2013-02-15 17:46:00,47.6,35.6,30.25,NE,48,11.0,11.0,63,0.00,,SKC,0.00,VWS V14.01,2013-02-15 23:46:00,
2013-02-15 17:51:00,47.5,35.5,30.25,NE,46,6.0,10.0,63,0.00,,SKC,0.00,VWS V14.01,2013-02-15 23:51:00,
2013-02-15 17:56:00,47.5,35.5,30.25,NNE,32,6.0,14.0,63,0.00,,SKC,0.00,VWS V14.01,2013-02-15 23:56:00,
2013-02-15 18:01:00,47.4,35.5,30.25,North,9,7.0,14.0,63,0.00,,SKC,0.00,VWS V14.01,2013-02-16 00:01:00,
2013-02-15 18:06:00,47.4,35.5,30.25,NNE,30,12.0,13.0,63,0.00,,SKC,0.00,VWS V14.01,2013-02-16 00:06:00,
2013-02-15 18:11:00,47.4,35.5,30.26,North,355,7.0,7.0,63,0.00,,SKC,0.00,VWS V14.01,2013-02-16 00:11:00,
2013-02-15 18:16:00,47.4,35.8,30.26,NNE,25,2.0,5.0,64,0.00,,SKC,0.00,VWS V14.01,2013-02-16 00:16:00,
2013-02-15 18:21:00,47.3,35.8,30.26,NNE,14,3.0,7.0,64,0.00,,SKC,0.00,VWS V14.01,2013-02-16 00:21:00,
2013-02-15 18:26:00,47.3,35.8,30.27,NE,37,3.0,5.0,64,0.00,,SKC,0.00,VWS V14.01,2013-02-16 00:26:00,
2013-02-15 18:31:00,47.2,35.7,30.27,NNE,15,4.0,9.0,64,0.00,,SKC,0.00,VWS V14.01,2013-02-16 00:31:00,
2013-02-15 18:36:00,47.0,35.1,30.27,NNE,19,11.0,15.0,63,0.00,,SKC,0.00,VWS V14.01,2013-02-16 00:36:00,
2013-02-15 18:41:00,46.7,34.4,30.28,NNE,19,10.0,16.0,62,0.00,,SKC,0.00,VWS V14.01,2013-02-16 00:41:00,
2013-02-15 18:46:00,46.5,34.2,30.28,NE,34,4.0,12.0,62,0.00,,SKC,0.00,VWS V14.01,2013-02-16 00:46:00,
2013-02-15 18:51:00,46.3,34.4,30.28,NNE,28,9.0,12.0,63,0.00,,SKC,0.00,VWS V14.01,2013-02-16 00:51:00,
2013-02-15 18:56:00,46.1,33.8,30.29,NNE,13,9.0,16.0,62,0.00,,SKC,0.00,VWS V14.01,2013-02-16 00:56:00,
2013-02-15 19:01:00,45.9,33.2,30.29,NNE,20,10.0,12.0,61,0.00,,SKC,0.00,VWS V14.01,2013-02-16 01:01:00,
2013-02-15 19:06:00,45.6,32.9,30.29,NNE,20,12.0,12.0,61,0.00,,SKC,0.00,VWS V14.01,2013-02-16 01:06:00,
2013-02-15 19:11:00,45.2,32.6,30.30,NNE,13,7.0,10.0,61,0.00,,SKC,0.00,VWS V14.01,2013-02-16 01:11:00,
2013-02-15 19:16:00,44.9,32.7,30.30,NNE,30,6.0,6.0,62,0.00,,SKC,0.00,VWS V14.01,2013-02-16 01:16:00,
2013-02-15 19:21:00,44.5,32.3,30.31,NNE,33,10.0,12.0,62,0.00,,SKC,0.00,VWS V14.01,2013-02-16 01:21:00,
2013-02-15 19:26:00,44.2,32.0,30.31,North,5,10.0,12.0,62,0.00,,SKC,0.00,VWS V14.01,2013-02-16 01:26:00,
2013-02-15 19:31:00,44.0,31.8,30.31,NNE,33,9.0,11.0,62,0.00,,SKC,0.00,VWS V14.01,2013-02-16 01:31:00,
2013-02-15 19:37:00,43.8,32.0,30.32,NNE,14,3.0,4.0,63,0.00,,SKC,0.00,VWS V14.01,2013-02-16 01:37:00,
2013-02-15 19:42:00,43.5,31.8,30.31,NE,35,6.0,10.0,63,0.00,,SKC,0.00,VWS V14.01,2013-02-16 01:42:00,
2013-02-15 19:47:00,43.4,31.7,30.32,NE,34,7.0,8.0,63,0.00,,SKC,0.00,VWS V14.01,2013-02-16 01:47:00,
2013-02-15 19:52:00,43.2,31.5,30.32,NNE,19,5.0,5.0,63,0.00,,SKC,0.00,VWS V14.01,2013-02-16 01:52:00,
2013-02-15 19:57:00,43.0,31.3,30.33,NNE,14,10.0,12.0,63,0.00,,SKC,0.00,VWS V14.01,2013-02-16 01:57:00,
2013-02-15 20:02:00,42.9,31.2,30.33,North,360,9.0,10.0,63,0.00,,SKC,0.00,VWS V14.01,2013-02-16 02:02:00,
2013-02-15 20:07:00,42.8,31.1,30.33,NNE,18,6.0,7.0,63,0.00,,SKC,0.00,VWS V14.01,2013-02-16 02:07:00,
2013-02-15 20:12:00,42.6,30.9,30.33,NNE,33,7.0,10.0,63,0.00,,SKC,0.00,VWS V14.01,2013-02-16 02:12:00,
2013-02-15 20:17:00,42.4,30.7,30.33,NNE,14,7.0,12.0,63,0.00,,SKC,0.00,VWS V14.01,2013-02-16 02:17:00,
2013-02-15 20:22:00,42.3,30.6,30.33,NE,36,7.0,10.0,63,0.00,,SKC,0.00,VWS V14.01,2013-02-16 02:22:00,
2013-02-15 20:27:00,42.2,30.5,30.33,NE,40,10.0,12.0,63,0.00,,SKC,0.00,VWS V14.01,2013-02-16 02:27:00,
2013-02-15 20:32:00,42.1,30.0,30.34,NNE,28,4.0,10.0,62,0.00,,SKC,0.00,VWS V14.01,2013-02-16 02:32:00,
2013-02-15 20:37:00,41.9,29.9,30.34,NNE,19,5.0,11.0,62,0.00,,SKC,0.00,VWS V14.01,2013-02-16 02:37:00,
2013-02-15 20:42:00,41.8,29.4,30.35,NNE,19,6.0,9.0,61,0.00,,SKC,0.00,VWS V14.01,2013-02-16 02:42:00,
2013-02-15 20:47:00,41.6,28.8,30.35,NNE,23,8.0,12.0,60,0.00,,SKC,0.00,VWS V14.01,2013-02-16 02:47:00,
2013-02-15 20:52:00,41.5,28.3,30.36,NE,38,5.0,6.0,59,0.00,,SKC,0.00,VWS V14.01,2013-02-16 02:52:00,
2013-02-15 20:57:00,41.3,28.9,30.36,NE,38,4.0,13.0,61,0.00,,SKC,0.00,VWS V14.01,2013-02-16 02:57:00,
2013-02-15 21:02:00,41.1,26.6,30.37,NNE,15,9.0,12.0,56,0.00,,SKC,0.00,VWS V14.01,2013-02-16 03:02:00,
2013-02-15 21:07:00,41.0,26.1,30.37,NNE,12,5.0,9.0,55,0.00,,SKC,0.00,VWS V14.01,2013-02-16 03:07:00,
2013-02-15 21:12:00,40.7,26.2,30.37,NNE,14,7.0,9.0,56,0.00,,SKC,0.00,VWS V14.01,2013-02-16 03:12:00,
2013-02-15 21:17:00,40.4,26.4,30.38,NNE,33,5.0,7.0,57,0.00,,SKC,0.00,VWS V14.01,2013-02-16 03:17:00,
2013-02-15 21:22:00,40.2,25.8,30.37,North,360,5.0,11.0,56,0.00,,SKC,0.00,VWS V14.01,2013-02-16 03:22:00,
2013-02-15 21:27:00,40.0,25.6,30.38,NNE,17,5.0,6.0,56,0.00,,SKC,0.00,VWS V14.01,2013-02-16 03:27:00,
2013-02-15 21:32:00,39.7,25.3,30.38,NNE,13,5.0,9.0,56,0.00,,SKC,0.00,VWS V14.01,2013-02-16 03:32:00,
2013-02-15 21:37:00,39.5,24.7,30.38,NNE,17,3.0,7.0,55,0.00,,SKC,0.00,VWS V14.01,2013-02-16 03:37:00,
2013-02-15 21:42:00,39.3,24.9,30.38,NNE,13,6.0,7.0,56,0.00,,SKC,0.00,VWS V14.01,2013-02-16 03:42:00,
2013-02-15 21:47:00,39.1,24.7,30.38,North,360,4.0,7.0,56,0.00,,SKC,0.00,VWS V14.01,2013-02-16 03:47:00,
2013-02-15 21:52:00,39.0,24.6,30.38,NNE,14,6.0,6.0,56,0.00,,SKC,0.00,VWS V14.01,2013-02-16 03:52:00,
2013-02-15 21:57:00,38.9,24.1,30.38,North,360,6.0,7.0,55,0.00,,SKC,0.00,VWS V14.01,2013-02-16 03:57:00,
2013-02-15 22:02:00,38.8,24.0,30.38,North,11,7.0,7.0,55,0.00,,SKC,0.00,VWS V14.01,2013-02-16 04:02:00,
2013-02-15 22:07:00,38.7,23.9,30.38,North,11,3.0,6.0,55,0.00,,SKC,0.00,VWS V14.01,2013-02-16 04:07:00,
2013-02-15 22:12:00,38.7,23.9,30.38,NNE,18,4.0,5.0,55,0.00,,SKC,0.00,VWS V14.01,2013-02-16 04:12:00,
2013-02-15 22:17:00,38.6,23.8,30.38,NNE,19,4.0,6.0,55,0.00,,SKC,0.00,VWS V14.01,2013-02-16 04:17:00,
2013-02-15 22:22:00,38.5,23.3,30.38,North,5,4.0,6.0,54,0.00,,SKC,0.00,VWS V14.01,2013-02-16 04:22:00,
2013-02-15 22:27:00,38.4,23.2,30.38,North,9,4.0,5.0,54,0.00,,SKC,0.00,VWS V14.01,2013-02-16 04:27:00,
2013-02-15 22:32:00,38.3,23.1,30.38,NNE,25,3.0,4.0,54,0.00,,SKC,0.00,VWS V14.01,2013-02-16 04:32:00,
2013-02-15 22:37:00,38.2,23.0,30.38,NNE,14,3.0,4.0,54,0.00,,SKC,0.00,VWS V14.01,2013-02-16 04:37:00,
2013-02-15 22:42:00,38.0,22.9,30.38,NNE,22,3.0,3.0,54,0.00,,SKC,0.00,VWS V14.01,2013-02-16 04:42:00,
2013-02-15 22:47:00,37.7,23.0,30.38,NNE,12,0.0,3.0,55,0.00,,SKC,0.00,VWS V14.01,2013-02-16 04:47:00,
2013-02-15 22:52:00,37.3,22.6,30.39,North,355,0.0,1.0,55,0.00,,SKC,0.00,VWS V14.01,2013-02-16 04:52:00,
2013-02-15 22:57:00,36.9,22.7,30.39,North,355,0.0,1.0,56,0.00,,SKC,0.00,VWS V14.01,2013-02-16 04:57:00,
2013-02-15 23:00:00,36.8,22.6,30.39,North,5,0.0,1.0,56,0.00,,SKC,0.00,VWS V14.01,2013-02-16 05:00:00,
2013-02-15 23:05:00,36.5,22.7,30.39,North,11,3.0,4.0,57,0.00,,SKC,0.00,VWS V14.01,2013-02-16 05:05:00,
2013-02-15 23:10:00,36.4,22.6,30.39,NNE,14,1.0,3.0,57,0.00,,SKC,0.00,VWS V14.01,2013-02-16 05:10:00,
2013-02-15 23:15:00,36.5,22.3,30.39,North,360,1.0,1.0,56,0.00,,SKC,0.00,VWS V14.01,2013-02-16 05:15:00,
2013-02-15 23:20:00,36.4,22.2,30.39,NNE,12,0.0,1.0,56,0.00,,SKC,0.00,VWS V14.01,2013-02-16 05:20:00,
2013-02-15 23:23:00,36.3,22.1,30.39,NNE,12,1.0,2.0,56,0.00,,SKC,0.00,VWS V14.01,2013-02-16 05:23:00,
2013-02-15 23:28:00,36.2,22.0,30.39,NNE,12,1.0,1.0,56,0.00,,SKC,0.00,VWS V14.01,2013-02-16 05:28:00,
2013-02-15 23:33:00,36.1,21.9,30.39,North,11,0.0,2.0,56,0.00,,SKC,0.00,VWS V14.01,2013-02-16 05:33:00,
2013-02-15 23:38:00,35.9,21.8,30.39,NNE,12,0.0,0.0,56,0.00,,SKC,0.00,VWS V14.01,2013-02-16 05:38:00,
2013-02-15 23:43:00,35.5,22.2,30.39,North,11,0.0,0.0,58,0.00,,SKC,0.00,VWS V14.01,2013-02-16 05:43:00,
2013-02-15 23:48:00,34.8,22.3,30.39,North,11,1.0,1.0,60,0.00,,SKC,0.00,VWS V14.01,2013-02-16 05:48:00,
2013-02-15 23:53:00,34.4,22.4,30.39,NNE,12,0.0,0.0,61,0.00,,SKC,0.00,VWS V14.01,2013-02-16 05:53:00,
2013-02-15 23:58:00,34.0,22.4,30.39,NNE,12,0.0,1.0,62,0.00,,SKC,0.00,VWS V14.01,2013-02-16 05:58:00,